| time (UTC) | temp F | wind direction | speed MPH | gust MPH | rain 1hr in | rain 24hr in | rain mn in | humidity % | barometer mb |
| 20260510150422 | 56 | 12 | 9.0 | 23.0 | 0.00 | 0.00 | 0.00 | 54 | 1015.7 |
| 20260510143424 | 58 | 73 | 10.0 | 21.0 | 0.00 | 0.00 | 0.00 | 53 | 1015.7 |
| 20260510133422 | 57 | 59 | 12.0 | 23.0 | 0.00 | 0.00 | 0.00 | 54 | 1016.0 |
| 20260510130428 | 56 | 46 | 10.0 | 23.0 | 0.00 | 0.00 | 0.00 | 55 | 1016.4 |
| 20260510120425 | 56 | 55 | 9.0 | 22.0 | 0.00 | 0.00 | 0.00 | 59 | 1016.9 |
| 20260510110423 | 56 | 55 | 11.0 | 20.0 | 0.00 | 0.00 | 0.00 | 61 | 1017.6 |
| 20260510103422 | 54 | 55 | 10.0 | 25.0 | 0.00 | 0.00 | 0.00 | 65 | 1017.8 |
| 20260510100420 | 54 | 30 | 9.0 | 19.0 | 0.00 | 0.00 | 0.00 | 66 | 1018.0 |
| 20260510093428 | 54 | 65 | 9.0 | 21.0 | 0.00 | 0.00 | 0.00 | 65 | 1018.1 |
| 20260510090420 | 54 | 33 | 10.0 | 20.0 | 0.00 | 0.00 | 0.00 | 66 | 1018.1 |
| 20260510083423 | 53 | 66 | 9.0 | 19.0 | 0.00 | 0.00 | 0.00 | 70 | 1018.2 |
| 20260510073422 | 52 | 51 | 8.0 | 16.0 | 0.00 | 0.00 | 0.00 | 76 | 1018.2 |
| 20260510063422 | 51 | 13 | 8.0 | 19.0 | 0.00 | 0.00 | 0.00 | 79 | 1018.0 |
| 20260510060419 | 51 | 24 | 8.0 | 20.0 | 0.00 | 0.00 | 0.00 | 80 | 1017.6 |
| 20260510053428 | 51 | 84 | 7.0 | 19.0 | 0.00 | 0.00 | 0.00 | 82 | 1017.4 |
| 20260510050420 | 50 | 34 | 5.0 | 14.0 | 0.00 | 0.00 | 0.00 | 82 | 1017.5 |
| 20260510040424 | 49 | 27 | 3.0 | 11.0 | 0.00 | 0.00 | 0.00 | 85 | 1017.7 |
| 20260510033419 | 49 | 29 | 5.0 | 13.0 | 0.00 | 0.00 | 0.00 | 85 | 1017.6 |
| 20260510030424 | 49 | 64 | 4.0 | 13.0 | 0.00 | 0.00 | 0.00 | 84 | 1017.7 |
| 20260510023419 | 50 | 52 | 5.0 | 12.0 | 0.00 | 0.00 | 0.00 | 84 | 1017.8 |
| 20260510020411 | 50 | 37 | 5.0 | 11.0 | 0.00 | 0.00 | 0.00 | 85 | 1018.0 |
| 20260510013416 | 48 | 38 | 2.0 | 6.0 | 0.00 | 0.00 | 0.00 | 86 | 1018.1 |
| 20260510010419 | 47 | 11 | 1.0 | 4.0 | 0.00 | 0.00 | 0.00 | 86 | 1018.1 |
| 20260510003409 | 47 | 0 | 1.0 | 6.0 | 0.00 | 0.00 | 0.00 | 86 | 1018.2 |
| 20260510000411 | 47 | 11 | 2.0 | 6.0 | 0.00 | 0.00 | 0.00 | 85 | 1018.3 |
| 20260509230415 | 50 | 13 | 2.0 | 8.0 | 0.00 | 0.00 | 0.00 | 83 | 1018.5 |
| 20260509223410 | 51 | 40 | 4.0 | 9.0 | 0.00 | 0.00 | 0.00 | 82 | 1018.2 |
| 20260509220419 | 51 | 13 | 5.0 | 12.0 | 0.00 | 0.00 | 0.00 | 82 | 1018.0 |
| 20260509213404 | 52 | 40 | 5.0 | 11.0 | 0.00 | 0.00 | 0.00 | 79 | 1017.7 |
| 20260509210406 | 53 | 48 | 6.0 | 16.0 | 0.00 | 0.00 | 0.00 | 77 | 1017.8 |
| 20260509203404 | 54 | 68 | 5.0 | 13.0 | 0.00 | 0.00 | 0.00 | 73 | 1017.8 |
| 20260509200415 | 55 | 53 | 5.0 | 11.0 | 0.00 | 0.00 | 0.00 | 56 | 1017.3 |
| 20260509193406 | 57 | 57 | 6.0 | 11.0 | 0.00 | 0.00 | 0.00 | 51 | 1016.9 |
| 20260509190411 | 59 | 47 | 4.0 | 11.0 | 0.00 | 0.00 | 0.00 | 46 | 1016.5 |
| 20260509183414 | 62 | 112 | 8.0 | 16.0 | 0.00 | 0.00 | 0.00 | 38 | 1016.2 |
| 20260509180405 | 65 | 51 | 8.0 | 18.0 | 0.00 | 0.00 | 0.00 | 36 | 1015.9 |
| 20260509173421 | 66 | 90 | 12.0 | 20.0 | 0.00 | 0.00 | 0.00 | 35 | 1015.9 |
| 20260509170405 | 67 | 82 | 11.0 | 19.0 | 0.00 | 0.00 | 0.00 | 37 | 1015.7 |
| 20260509163414 | 69 | 95 | 9.0 | 18.0 | 0.00 | 0.00 | 0.00 | 36 | 1015.7 |
| 20260509160357 | 70 | 106 | 6.0 | 15.0 | 0.00 | 0.00 | 0.00 | 38 | 1015.6 |
| 20260509153358 | 71 | 59 | 5.0 | 13.0 | 0.00 | 0.00 | 0.00 | 35 | 1015.2 |